#timestamp,LO_Frequency,Hit,StdDev 
1696118415.4,286047000.9,N
1696118435.3,286046999.8,N
1696118455.1,286047004.3,N
1696118456.0,286047004.3,N
1696118475.8,286047003.9,N
1696118495.7,286047003.3,N
1696118515.5,286047005.6,N
1696118535.4,286047007.5,Y
1696118555.2,286047006.7,P
1696118575.0,286047006.8,N
1696118575.9,286047006.8,N
1696118595.8,286047007.1,N
1696118615.6,286047007.6,N
1696118635.4,286047005.2,N
1696118655.3,286047004.6,N
1696118675.1,286047005.1,N
1696118695.9,286047006.7,Y
1696118715.7,286047004.3,P
1696118735.5,286047003.7,P
1696118755.4,286047004.3,P
1696118775.2,286046999.8,N
1696118795.0,286046999.9,N
1696118796.0,286046999.9,N
1696118815.8,286046999.8,N
1696118835.6,286047002.4,N
1696118855.5,286047002.3,N
1696118875.3,286047000.0,N
1696118895.1,286047001.6,N
1696118915.9,286047002.8,N
1696118935.7,286047001.7,N
1696118955.6,286047002.4,N
1696118975.4,286047001.3,N
1696118995.2,286047004.2,N
1696119015.1,286047005.6,Y
1696119016.0,286047005.6,P
1696119035.8,286047002.7,N
1696119055.7,286046999.8,N
1696119075.5,286047002.2,N
1696119095.3,286047000.1,N
1696119115.2,286046999.8,N
1696119135.0,286047002.4,N
1696119135.9,286047002.4,N
1696119155.8,286047000.0,N
1696119175.6,286047000.2,N
1696119195.4,286047004.4,N
1696119215.3,286047005.7,Y
1696119235.1,286047003.7,P
1696119255.9,286047001.7,N
1696119275.7,286047002.0,N
1696119295.5,286047004.1,Y
1696119315.4,286047002.8,P
1696119335.2,286046998.1,P
1696119355.0,286047000.4,N
1696119355.9,286047000.4,N
1696119375.8,286047000.8,N
1696119395.6,286046998.8,N
1696119415.5,286046998.4,N
1696119435.3,286046998.3,N
1696119455.1,286046998.9,N
1696119475.9,286046997.2,N
1696119495.7,286046996.7,N
1696119515.6,286046999.2,N
1696119535.4,286047000.8,N
1696119555.2,286046998.3,N
1696119575.1,286046998.9,N
1696119576.0,286046998.9,N
1696119595.8,286046998.2,N
1696119615.7,286046998.3,N
1696119635.5,286047001.2,N
1696119655.3,286046998.1,N
1696119675.2,286047000.5,N
1696119695.0,286047000.6,N
1696119695.9,286047000.6,N
1696119715.7,286047000.0,N
1696119735.6,286047000.2,N
1696119755.4,286047002.7,N
1696119775.3,286047002.3,N
1696119795.1,286047002.5,N
1696119815.8,286047000.1,N
1696119835.7,286047002.2,N
1696119855.5,286047001.5,N
1696119875.4,286047004.2,N
1696119895.2,286047003.4,N
1696119915.0,286047004.5,N
1696119915.9,286047004.5,N
1696119935.8,286047009.2,Y
1696119955.6,286047006.9,P
1696119975.5,286047008.0,N
1696119995.3,286047007.9,N
1696120015.1,286047007.9,N
1696120035.9,286047010.8,Y
1696120055.7,286047001.8,P
1696120075.5,286047003.9,N
1696120095.4,286047001.7,N
1696120115.2,286047002.6,N
1696120135.1,286047002.8,N
1696120136.0,286047002.8,N
1696120155.8,286047001.9,N
1696120175.6,286047001.8,N
1696120195.5,286047001.9,N
1696120215.3,286047001.5,N
1696120235.2,286047002.2,N
1696120255.9,286047002.5,N
1696120275.7,286047003.9,Y
1696120295.6,286047002.4,P
1696120315.4,286047002.3,P
1696120335.2,286047002.4,P
1696120355.1,286047000.1,N
1696120356.0,286047000.1,N
1696120375.8,286047000.1,N
1696120395.7,286047002.0,N
1696120415.5,286047001.9,N
1696120435.3,286047004.2,Y
1696120455.2,286047003.1,P
1696120475.0,286047003.4,P
1696120475.9,286047003.4,P
1696120495.8,286047003.1,Y
1696120515.6,286047002.8,P
1696120535.4,286047002.1,P
1696120555.3,286047002.8,P
1696120575.1,286047001.6,Y
1696120595.8,286047001.1,P
1696120615.7,286047001.1,N
1696120635.5,286047002.2,N
1696120655.4,286047001.6,N
1696120675.2,286047001.3,N
1696120695.0,286047001.8,Y
1696120695.9,286047001.8,P
1696120715.8,286047000.1,N
1696120735.6,286047001.5,N
1696120755.4,286047002.4,Y
1696120775.3,286047001.0,P
1696120795.1,286047000.0,N
1696120815.9,286047000.5,N
1696120835.7,286046999.7,N
1696120855.5,286047002.4,Y
1696120875.4,286047001.0,P
1696120895.2,286047000.0,N
1696120915.0,286046999.7,N
1696120916.0,286046999.7,N
1696120935.8,286047000.0,N
1696120955.6,286046999.7,N
1696120975.5,286047001.5,Y
1696120995.3,286047004.0,P
1696121015.1,286047003.5,N
1696121035.9,286047003.6,N
1696121055.7,286047007.6,Y
1696121075.6,286047003.3,P
1696121095.4,286047007.6,P
1696121115.2,286047007.3,P
1696121135.1,286047006.7,Y
1696121136.0,286047006.7,P
1696121155.8,286046999.9,N
1696121175.6,286047002.3,N
1696121195.5,286047002.4,N
1696121215.3,286047002.7,N
1696121235.2,286047002.2,N
1696121255.9,286047001.9,N
1696121275.7,286047004.1,N
1696121295.6,286047003.6,N
1696121315.4,286047002.9,N
1696121335.2,286047003.1,N
1696121355.1,286047003.2,N
1696121356.0,286047003.2,N
1696121375.8,286047006.0,Y
1696121395.7,286047002.7,P
1696121415.5,286046999.7,N
1696121435.3,286047002.5,N
1696121455.2,286047001.5,N
1696121475.0,286047001.7,N
1696121475.9,286047001.7,N
1696121495.8,286047003.2,Y
1696121515.6,286047001.6,P
1696121535.4,286047002.9,P
1696121555.3,286047004.4,P
1696121575.1,286047003.0,N
1696121595.8,286047004.6,Y
1696121615.7,286047001.6,P
1696121635.5,286047002.8,P
1696121655.4,286047000.4,N
1696121675.2,286047000.7,N
1696121695.0,286047001.0,N
1696121695.9,286047001.0,N
1696121715.8,286047000.2,N
1696121735.6,286047001.9,N
1696121755.4,286047001.3,N
1696121775.3,286047004.1,Y
1696121795.1,286047002.7,P
1696121815.9,286047000.1,N
1696121835.7,286047000.3,N
1696121855.5,286046999.9,N
1696121875.4,286046999.9,N
1696121895.2,286047002.8,N
1696121915.0,286047002.2,N
1696121916.0,286047002.2,N
1696121935.8,286047004.2,Y
1696121955.6,286047002.4,P
1696121975.5,286047001.6,N
1696121995.3,286047001.8,P
